Погода Чапаево

Погода Чапаево : погода сейчас, прогноз погоды и архив. Всё, что Вы хотите узнать о погоде Чапаево!

Поиск расширенной информации на нашем сайте:

Другие новости

Новости СМИ2

Главная страница сайта

Новости сайта

03.07.2017

Напоминаем, что на нашем специализированном сайте Метеоцентр.Азия вы можете получить высокодетализированные автоматические прогнозы погоды по пунктам России, СНГ и мира в авиационном формате (включающие направление и скорость ветра, видимость, явления погоды, количество и форму облачности, нижнюю и верхнюю границу облачности).


Погода Чапаево - сегодня

Время (UTC), дата Ветер
(°,м/с) 
Видим.   Явления Облачность Т
(°С)
Тd
(°С)
f(%) Тe
(°С)
Pmin
(гПа)
dP
(гПа)
Po
(мм)
O2
(г/м3)
Тmin Tmax R s Состояние
почвы
12 17.07.18 250 (З) 20000 м    3/3 600 м 
[Cu hum]
+30.4 +15.8 41 +40  1001.8  0.7  750  269           
15 17.07.18 250 (З) 20000 м    4/3 600 м верхняя 
[Cu hum|Cs]
+30.9 +13.6 35 +37  1002  0.2  750  269    +32.6       
18 17.07.18 160 (Ю) н/о    8/0 верхняя 
[Cs]
+26.2 +13.7 46 +33  1002.7  0.7  751  273    +32.6       
21 17.07.18 200 (Ю) н/о    ясно 
+23.3 +13.9 56 +30  1003.1  0.4  751  276           
00 18.07.18 тихо ()   н/о    ясно 
+19.6 +13.1 66 +25  1002.9  -0.2  751  280           
03 18.07.18 тихо ()   20000 м    4/0 верхняя 
[Ci fib]
+24.2 +14.9 56 +33  1003.5  0.6  751  275           
06 18.07.18 260 (З) 20000 м    1/1 600 м 
[Cu med, cong]
+30.2 +12.9 35 +35  1004.2  0.7  752  270  +18.3         
09 18.07.18 260 (З) 20000 м    8/8 600 м 
[Cu med, cong]
+32.4 +12.2 29 +37  1003.4  -0.8  751  268           
12 18.07.18 280 (З) 20000 м    5/5 600 м 
[Cu med, cong]
+33.6 +10.6 25 +36  1003.1  -0.3  751  268           
15 18.07.18 270 (З) 20000 м    3/3 600 м 
[Cu med, cong]
+32.6 +10.7 26 +35  1003.5  0.4  751  269    +34.1       
18 18.07.18 290 (З) н/о    3/0 средняя 
[Ac lent]
+26.1 +11.5 40 +29  1004.8  1.3  752  275    +34.1       
21 18.07.18 тихо ()   н/о    ясно 
+21.3 +10.7 51 +23  1005.1  0.3  752  279           
00 19.07.18 140 (ЮВ) н/о    ясно 
+19 +11.5 62 +24  1006  0.8  753  282           
03 19.07.18 200 (Ю) 20000 м    4/0 верхняя 
[Cc]
+26.3 +12.7 43 +31  1006.8  0.9  754  275           
06 19.07.18 тихо ()   20000 м    3/3 600 м 
[Cu hum]
+33 +12.2 28 +37        267  +18.9         
09 19.07.18 тихо ()   20000 м    6/6 600 м 
[Cu med, cong]
+34.2 +12.1 26 +38        266           
12 19.07.18 340 (С) 20000 м  гроза без осадков  10/10 600 м кучево-дожд. 
[Cb cap]
+29 +19.3 56 +46  1006.2    753  270           
15 19.07.18 070 (В) 20000 м  {гроза}  4/4 600 м кучево-дожд. 
[Cb calv]
+32 +13.9 33 +39  1005.7  -0.5  753  269    +32.2       
18 19.07.18 250 (З) н/о  зарница{гроза}  6/6 600 м кучево-дожд. 
[Cb calv]
+29.6 +13.1 36 +35  1007.1  1.4  754  272    +32.2  0.0     
21 19.07.18 020 (С) н/о    8/8 600 м 
[Sc]
+22.7 +19 80 +39  1006.5  -0.6  753  276           
00 20.07.18 090 (В) н/о    8/8 600 м 
[Sc]
+26.3 +15.7 52 +36  1004.9  -1.6  752  273           
03 20.07.18 090 (В) 20000 м    6/6 600 м 
[Sc]
+26.2 +14.3 48 +34  1004.9  752  274           
06 20.07.18 070 (В) 20000 м    8/8 600 м 
[Sc]
+28.2 +15.9 47 +38  1004.7  -0.2  752  271  +22.7         
09 20.07.18 050 (СВ) 20000 м    8/0 
[Cu Sc]
+29.8 +16.6 45 +41  1004.7  752  270           
12 20.07.18 180 (Ю) 20000 м    8/8 600 м 
[Sc]
+32.8 +12.1 28 +37  1004.3  -0.4  752  268           
Время (UTC), дата Ветер
(°,м/с) 
Видим.   Явления Облачность Т
(°С)
Тd
(°С)
f(%) Тe
(°С)
Pmin
(гПа)
dP
(гПа)
Po
(мм)
O2
(г/м3)
Тmin Tmax R s Состояние
почвы

Для получения пояснительной информации подведите курсор к названию столбца.

ПОГОДА Чапаево - архив

Всё, что Вы хотите узнать о погоде Чапаево - удобно и подробно!

Выберите нужную дату (начиная с 1 января 2015* года) и нажмите кнопку "Найти".
Будут отображены архивные сводки погоды по пункту Чапаево, начиная с указанной даты.


Отображать данные в формате CSV (для использования в таблицах Excel)


Внимание! Наш архив погоды предназначен исключительно для личного некоммерческого использования в познавательных целях. Если Вам необходимы официальные справки о состоянии погоды (для производственных, юридических, коммерческих и т.п. целей), обращайтесь в органы Росгидромета.

*Примечание: данная дата относится к архиву по метеостанциям СССР (Россия, СНГ, Балтия).
Архив по метеостанциям Зарубежной Европы и Азии (кроме Китая) хранится 10 дней, по другим регионам земного шара (Китай, Африка, Америка, Австралия, Океания) - 1 день.

Чапаево - район местоположения метеостанции


Название, широта, долгота, высота метеостанции:
Чапаево 50.2°ш. 51.2°д. 17 м над ур. моря [Казахстан]

Дополнительная информация

В oтличие oт бoльшинства пoгoдных сайтoв мы публикуем пoдрoбную метеoинфoрмацию в детальнoм прoфессиoнальнoм фoрмате.

Характеристики температуры и влажнoсти вoздуха измеряются на высoте 2 м в тени вдали oт зданий и деревьев.
Скoрoсть ветра измеряется на высoте 10 м (на урoвне рoста челoвека скoрoсть ветра ниже в 1.5-2 раза). Если метеoстанция нахoдится в гoрoде или в лесу, тo скoрoсть ветра занижена на 2-4 м/с пo сравнению с oткрытым местoм. Скoрoсть ветра над акватoриями крупных рек и oзёр, а также на вершинах хoлмoв на 2-5 м/с выше, чем в oбычных услoвиях.
Атмoсфернoе давление в разных тoчках местнoсти мoжет значительнo oтличаться oт давления на метеoстанции, в зависимoсти oт услoвий рельефа (при пoдъёме на 10 м давление пoнижается примернo на 1 мм рт.ст.).